User: anonymous   Login
Location: Omaha
(41.2590°N, 95.9380°W)
Time: 14:37:34
(UTC-06:00)
Language:

DUCHIFAT 1 - Orbit

View from above orbital plane
View from above orbital plane
View from above satellite
View from above satellite

Ground track
Ground track

The orbit data is extracted from the following two-line orbital elements,

1 40021U 14033M   18054.31727002  .00000467  00000-0  54001-4 0  9999
2 40021  97.9176 332.8322 0012583 188.0035 172.0984 14.90203928199991
Epoch (UTC): 23 February 2018 07:36:52
Eccentricity: 0.0012583
inclination: 97.9176°
perigee height: 588 km
apogee height: 606 km
right ascension of ascending node: 332.8322°
argument of perigee: 188.0035°
revolutions per day: 14.90203928
mean anomaly at epoch: 172.0984°
orbit number at epoch: 19999

The dashed part of the orbit path shows where the satellite is in the earth's shadow,  

DLR